Zurück zum Katalog

FENGYUN 1C DEB

AktivSSO
NORAD 38158·DEBRIS·🇨🇳 China

Gestartet May 10, 1999 von Taiyuan Satellite Launch Center

Loading…

Nächste Überflüge (nächste 24 Stunden)

TLE

AlterndSource: Space-Track

Epoche: Sep 8, 2026, 07:23 UTC

1 38158U 99025ERF 26251.30802834  .00000781  00000-0  76375-3 0  9991
2 38158  99.2664 274.5002 0214967 102.5439 259.9845 13.72283541605791

Verfolge FENGYUN 1C DEB in Echtzeit mit AllMySat

Download on the App Store